Date/Time (UTC),ProbHail,ProbWind,ProbTor,MESH,VIL Density,Flash Rate,Max Flash Density,LJA sigma-level,Max 0-2km AzShear,LLAZ 98th%,MLAZ 98th%,MUCAPE,MLCAPE,CAPE -10C to -30C,MLCIN,SRH 0-1km AGL,EBShear,MeanWind 0-1km AGL,Norm. Sat. Growth Rate,PWAT,WBZ,AvgBeamHgt,size
2018/07/19 19:28,5,1,1,0.04,0.30,1,0.06,0.0,1,1,4,3077,2723,890,4,211,47.7,28.2,2.8,1.5,3413.76,160.0,45
2018/07/19 19:30,5,1,1,0.04,0.40,1,0.06,0.0,2,2,6,3081,2727,890,5,211,47.9,28.2,2.8,1.5,3413.76,160.0,51
2018/07/19 19:32,5,1,1,0.04,0.40,1,0.06,0.0,2,2,6,3080,2728,888,4,210,48.6,28.2,2.8,1.5,3413.76,150.0,98
2018/07/19 19:34,5,1,2,0.03,0.40,1,0.06,0.0,4,3,6,3092,2746,891,6,212,48.4,28.0,2.8,1.6,3413.76,200.0,226
2018/07/19 19:36,5,1,2,0.03,0.40,1,0.08,0.0,4,3,6,3102,2756,892,6,212,48.2,27.9,2.8,1.6,3413.76,210.0,189
2018/07/19 19:38,5,1,1,0.03,0.40,1,0.08,0.0,5,3,5,3095,2752,891,7,213,47.6,27.9,2.8,1.6,3413.76,220.0,227
2018/07/19 19:40,5,1,1,0.00,0.40,1,0.08,0.0,5,2,5,3114,2776,896,8,215,48.4,27.7,2.8,1.6,3413.76,250.0,216
2018/07/19 19:42,5,2,2,0.14,0.40,5,0.23,0.0,5,2,6,3118,2785,899,8,215,48.4,27.5,2.8,1.6,3444.24,270.0,181
2018/07/19 19:44,9,23,3,0.30,0.60,18,0.55,8.0,5,3,8,3106,2773,896,9,216,48.4,27.6,2.8,1.6,3444.24,270.0,274
2018/07/19 19:46,21,28,4,0.37,0.70,27,0.55,1.7,5,3,8,3107,2774,898,9,216,48.7,27.5,2.8,1.6,3444.24,280.0,307
2018/07/19 19:48,27,38,8,0.37,0.80,31,0.63,0.7,5,3,10,3122,2788,903,7,214,49.1,27.6,2.8,1.6,3444.24,260.0,232
2018/07/19 19:50,66,57,11,0.65,1.30,40,0.70,2.1,7,3,10,3128,2795,905,7,214,49.2,27.5,2.8,1.6,3444.24,270.0,227
2018/07/19 19:52,68,77,25,0.70,2.20,44,0.70,1.0,11,4,13,3120,2791,907,8,216,49.1,27.3,2.8,1.6,3444.24,300.0,208
2018/07/19 19:54,85,83,28,0.94,2.20,44,0.76,0.0,11,4,13,3189,2839,921,1,174,52.1,27.8,2.8,1.6,3444.24,320.0,216
2018/07/19 19:56,85,94,35,0.94,2.20,45,0.88,0.8,11,6,13,3178,2833,918,1,173,52.1,27.8,2.8,1.6,3444.24,330.0,202
2018/07/19 19:58,90,95,29,1.01,2.60,48,1.11,1.0,10,6,14,3155,2816,910,1,171,52.0,27.9,2.8,1.6,3444.24,370.0,239
2018/07/19 20:00,92,95,29,1.11,2.60,50,1.11,0.5,10,6,17,3143,2811,907,1,171,51.8,27.9,2.8,1.6,3444.24,380.0,246
2018/07/19 20:02,92,95,15,1.11,2.90,50,1.11,0.0,7,5,17,3143,2814,907,1,169,51.8,27.9,2.8,1.6,3444.24,400.0,238
2018/07/19 20:04,92,95,15,1.11,2.90,50,1.11,0.3,7,5,17,3143,2814,907,1,169,51.6,27.9,2.8,1.6,3444.24,420.0,263
2018/07/19 20:06,86,97,16,0.77,2.90,67,1.11,4.4,7,5,14,3170,2844,914,1,164,52.9,27.8,2.8,1.6,3444.24,410.0,431
2018/07/19 20:08,93,95,16,1.01,2.70,67,1.11,0.0,7,5,14,3160,2830,910,1,164,52.8,27.9,2.8,1.6,3444.24,410.0,293
2018/07/19 20:10,93,85,19,1.04,2.00,67,1.11,0.1,8,5,12,3172,2844,913,1,165,52.9,27.8,2.8,1.6,3444.24,420.0,377
2018/07/19 20:12,95,95,29,1.12,2.30,67,1.11,0.0,10,6,16,3164,2841,911,1,161,52.9,27.9,2.8,1.6,3444.24,460.0,323
2018/07/19 20:14,98,95,29,1.53,3.50,60,1.11,0.4,10,6,16,3165,2848,912,1,161,53.0,27.8,2.8,1.6,3444.24,470.0,346
2018/07/19 20:16,98,95,35,1.70,4.00,60,1.11,0.0,10,7,16,3162,2845,912,1,161,52.8,27.8,2.8,1.6,3444.24,480.0,351
2018/07/19 20:18,99,95,54,1.79,4.00,60,1.11,0.1,11,9,17,3160,2847,912,1,162,52.2,27.8,2.8,1.6,3444.24,520.0,356
2018/07/19 20:20,99,95,54,1.79,4.00,66,1.11,2.1,11,9,17,3160,2852,914,1,162,52.2,27.8,2.8,1.6,3444.24,540.0,358
2018/07/19 20:22,98,95,52,1.79,3.80,66,1.11,0.0,11,9,17,3160,2854,917,1,162,52.0,27.8,2.8,1.6,3444.24,560.0,366
2018/07/19 20:24,98,95,52,1.56,3.70,71,1.11,2.7,11,9,17,3160,2861,923,1,163,51.5,27.8,2.8,1.6,3444.24,610.0,389
2018/07/19 20:26,97,95,42,1.39,3.40,71,1.11,0.0,11,8,17,3162,2863,925,1,163,51.4,27.7,2.8,1.6,3444.24,630.0,375
2018/07/19 20:28,97,95,24,1.33,3.00,71,1.11,0.1,9,6,10,3159,2861,926,1,160,51.6,27.7,2.8,1.6,3444.24,680.0,453
2018/07/19 20:30,95,95,24,1.15,3.10,77,1.05,2.1,9,6,10,3158,2861,928,1,160,51.2,27.6,2.8,1.6,3444.24,710.0,474
2018/07/19 20:32,91,95,24,0.93,3.10,77,1.05,0.0,9,6,10,3160,2863,930,1,161,51.0,27.6,2.8,1.6,3444.24,730.0,423
2018/07/19 20:34,94,95,14,1.06,3.10,77,1.05,0.0,8,5,9,3159,2862,930,1,162,50.8,27.6,2.8,1.6,3444.24,720.0,495
2018/07/19 20:36,95,95,9,1.14,3.00,77,1.05,0.4,8,5,7,3158,2860,930,1,162,50.6,27.5,2.8,1.6,3444.24,730.0,533
2018/07/19 20:38,96,95,17,1.14,2.80,90,0.96,2.0,8,5,10,3152,2856,932,2,159,50.6,27.4,2.8,1.6,3444.24,790.0,477
2018/07/19 20:40,96,95,18,1.14,2.70,90,0.96,0.0,8,5,10,3152,2853,931,2,160,50.6,27.4,2.8,1.6,3444.24,780.0,548
2018/07/19 20:42,95,95,33,1.08,2.40,90,0.96,0.0,10,7,10,3146,2847,930,2,160,50.6,27.4,2.8,1.6,3444.24,780.0,639
2018/07/19 20:44,95,95,37,1.08,2.40,90,0.96,0.0,11,8,9,3129,2833,933,2,153,50.7,27.1,2.8,1.6,3444.24,860.0,480
2018/07/19 20:46,97,95,34,1.27,2.80,84,0.77,0.0,11,8,9,3141,2840,931,1,161,50.5,27.3,2.8,1.6,3444.24,820.0,666
2018/07/19 20:48,98,95,56,1.37,3.20,75,0.77,0.1,19,9,8,3118,2822,933,2,153,50.3,27.0,2.8,1.6,3444.24,900.0,538
2018/07/19 20:50,97,95,69,1.37,3.20,66,0.77,0.0,19,9,10,3304,3059,995,1,123,51.5,28.0,Storm,1.6,3444.24,930.0,558
2018/07/19 20:52,97,95,74,1.39,3.20,66,0.77,0.8,19,10,12,3287,3044,987,1,121,51.3,28.0,Storm,1.6,3444.24,960.0,468
2018/07/19 20:54,99,95,74,1.76,3.60,66,0.77,0.0,19,10,12,3275,3033,981,1,120,51.3,28.0,Storm,1.6,3444.24,980.0,470
2018/07/19 20:56,99,95,74,1.76,3.60,86,0.77,9.4,19,10,12,3248,3008,977,1,120,51.0,28.1,Storm,1.6,3444.24,1040.0,541
2018/07/19 20:58,99,95,58,1.79,3.70,86,0.76,0.0,14,9,12,3225,2983,969,1,119,50.9,28.0,Storm,1.6,3444.24,1090.0,551
2018/07/19 21:00,99,95,74,1.80,3.70,86,0.76,0.8,19,10,11,3204,2963,967,1,119,50.8,28.1,Storm,1.6,3444.24,1120.0,593
2018/07/19 21:02,99,95,77,1.81,3.70,86,0.76,0.0,24,11,11,3179,2939,960,1,118,50.7,28.0,Storm,1.6,3444.24,1170.0,595
2018/07/19 21:04,99,95,77,1.81,4.40,77,0.76,0.4,24,11,11,3163,2921,952,2,116,50.7,28.0,Storm,1.6,3444.24,1210.0,669
2018/07/19 21:06,99,95,77,1.94,4.40,77,0.76,0.3,28,11,11,3154,2910,948,2,116,50.7,27.9,Storm,1.6,3444.24,1240.0,650
2018/07/19 21:08,99,95,77,1.94,4.40,76,0.76,0.0,30,11,11,3149,2901,941,2,114,50.8,27.8,Storm,1.6,3444.24,1240.0,586
2018/07/19 21:10,99,95,77,1.94,3.60,76,0.76,0.8,30,11,11,3144,2892,938,2,113,50.7,27.8,Storm,1.6,3444.24,1280.0,597
2018/07/19 21:12,99,95,77,1.93,3.60,76,0.76,0.0,30,11,11,3138,2885,935,3,112,50.7,27.8,Storm,1.6,3444.24,1300.0,533
2018/07/19 21:14,99,95,74,1.73,3.60,76,0.58,1.6,30,13,10,3143,2890,935,3,111,50.7,27.8,Storm,1.6,3444.24,1290.0,511
2018/07/19 21:16,99,95,74,1.69,3.80,76,0.57,0.0,29,13,10,3131,2874,932,3,110,50.7,27.8,Storm,1.6,3444.24,1340.0,533
2018/07/19 21:18,99,95,68,1.70,4.00,81,0.57,1.1,29,13,10,3120,2863,931,3,109,50.7,27.8,Storm,1.6,3474.72,1370.0,555
2018/07/19 21:20,99,95,65,1.72,4.20,87,0.57,0.5,29,12,9,3106,2848,930,3,109,50.7,27.7,Storm,1.6,3474.72,1410.0,629
2018/07/19 21:22,99,95,62,1.72,4.20,87,0.57,0.0,29,12,9,3100,2839,928,3,107,50.7,27.7,Storm,1.6,3474.72,1450.0,613
2018/07/19 21:24,99,95,63,1.72,4.20,87,0.63,0.6,24,12,9,3098,2837,928,3,107,50.6,27.7,Storm,1.6,3474.72,1460.0,601
2018/07/19 21:26,98,95,63,1.49,3.90,87,0.63,0.0,25,12,9,3094,2832,927,3,107,50.6,27.7,Storm,1.6,3474.72,1470.0,605
2018/07/19 21:28,98,95,56,1.47,3.90,83,0.63,0.0,25,12,8,3096,2833,926,3,106,50.6,27.7,Storm,1.6,3474.72,1490.0,586
2018/07/19 21:30,98,95,54,1.47,3.60,83,0.63,1.0,25,11,8,3097,2832,925,3,104,50.5,27.6,Storm,1.6,3474.72,1530.0,643
2018/07/19 21:32,98,95,53,1.46,3.60,81,0.63,0.0,25,10,8,3094,2829,924,3,104,50.5,27.6,Storm,1.6,3474.72,1540.0,640
2018/07/19 21:34,98,95,39,1.51,3.80,77,0.63,0.2,25,8,8,3090,2825,923,3,102,50.5,27.6,Storm,1.6,3474.72,1560.0,597
2018/07/19 21:36,99,95,16,1.57,4.10,77,0.63,0.2,11,7,8,3077,2811,921,3,101,50.4,27.5,Storm,1.6,3474.72,1610.0,655
2018/07/19 21:38,99,95,16,1.57,4.20,76,0.63,0.0,11,7,8,3078,2812,921,3,100,50.4,27.5,Storm,1.6,3474.72,1610.0,645
2018/07/19 21:40,99,95,32,1.57,4.20,85,0.63,3.1,12,9,9,3066,2801,920,3,99,50.4,27.5,Storm,1.6,3474.72,1660.0,656
2018/07/19 21:42,99,95,35,1.57,4.20,97,0.63,0.9,13,9,9,3058,2793,919,3,97,50.3,27.4,Storm,1.6,3474.72,1700.0,699
2018/07/19 21:44,99,95,37,1.59,4.20,97,0.63,0.0,14,9,9,3059,2792,918,3,97,50.3,27.4,Storm,1.6,3474.72,1710.0,692
2018/07/19 21:46,99,95,31,1.59,4.20,97,0.63,0.0,14,8,9,3050,2785,917,3,97,50.3,27.4,Storm,1.6,3474.72,1760.0,698
2018/07/19 21:48,99,95,37,1.59,4.40,97,0.63,0.0,14,9,9,3048,2781,916,3,95,50.3,27.3,Storm,1.6,3474.72,1800.0,657
2018/07/19 21:50,99,95,41,1.48,4.40,90,0.63,1.0,14,9,10,3046,2778,916,3,95,50.3,27.3,Storm,1.6,3474.72,1820.0,675
2018/07/19 21:52,98,95,43,1.43,4.40,92,0.63,0.7,14,9,10,3042,2774,914,3,95,50.2,27.2,Storm,1.6,3474.72,1870.0,684
2018/07/19 21:54,98,95,55,1.84,4.00,92,0.63,0.0,13,10,10,3119,2904,936,3,125,50.5,30.4,0,1.7,3474.72,1910.0,695
2018/07/19 21:56,98,95,65,1.84,4.00,92,0.49,0.7,15,10,11,3116,2899,934,3,124,50.5,30.4,0,1.7,3474.72,1920.0,685
2018/07/19 21:58,98,95,65,1.89,4.30,92,0.49,0.0,15,10,11,3113,2895,933,3,123,50.5,30.4,0,1.7,3474.72,1950.0,697
2018/07/19 22:00,98,95,65,1.89,4.30,88,0.49,0.2,15,10,11,3101,2878,934,3,122,50.4,30.4,0,1.7,3474.72,2050.0,784
2018/07/19 22:02,98,95,53,1.89,4.30,93,0.49,1.5,15,10,9,3098,2873,934,3,122,50.4,30.4,0,1.7,3474.72,2070.0,778
2018/07/19 22:04,96,95,57,1.21,4.00,116,0.63,2.2,15,10,9,3092,2864,934,2,121,50.4,30.4,0,1.7,3474.72,2110.0,794
2018/07/19 22:06,97,95,26,1.30,3.80,116,0.63,0.0,13,8,7,3084,2851,933,2,119,50.4,30.4,0,1.6,3474.72,2160.0,791
2018/07/19 22:08,97,95,38,1.31,3.50,116,0.63,0.1,13,8,9,3084,2852,933,3,119,50.4,30.4,0,1.6,3474.72,2150.0,754
2018/07/19 22:10,97,95,43,1.31,3.40,116,0.63,0.0,15,8,9,3077,2844,932,3,117,50.4,30.4,0,1.6,3474.72,2160.0,767
2018/07/19 22:12,97,95,60,1.31,3.40,124,0.83,1.6,15,10,9,3062,2825,935,3,116,50.4,30.4,0,1.6,3474.72,2220.0,756
2018/07/19 22:14,97,95,68,1.28,3.40,124,0.83,0.0,15,10,10,3058,2819,934,3,115,50.3,30.4,0,1.6,3474.72,2250.0,767
2018/07/19 22:16,96,95,68,1.15,3.30,124,0.83,0.0,15,10,10,3053,2813,932,3,115,50.2,30.3,0,1.6,3474.72,2300.0,792
2018/07/19 22:18,96,95,57,1.15,3.20,124,0.83,0.0,15,8,10,3042,2802,934,3,114,50.2,30.3,0,1.6,3474.72,2380.0,721
2018/07/19 22:20,95,95,39,1.13,3.10,108,0.83,0.0,14,8,8,3035,2796,934,3,113,50.1,30.2,0,1.6,3474.72,2430.0,718
2018/07/19 22:22,91,95,39,0.93,2.70,107,0.83,1.4,14,8,8,3030,2792,934,3,113,50.1,30.2,0,1.6,3474.72,2460.0,742
2018/07/19 22:24,91,95,17,0.93,2.70,114,0.83,0.5,10,8,7,3023,2780,937,3,111,50.0,30.1,0,1.6,3474.72,2580.0,725
2018/07/19 22:26,95,95,17,1.15,2.70,124,0.83,0.9,10,8,7,3019,2774,935,3,111,49.8,30.0,0,1.6,3474.72,2650.0,778
2018/07/19 22:28,96,95,17,1.15,2.70,124,0.83,0.0,10,8,7,3017,2767,934,3,110,49.7,29.9,0,1.6,3474.72,2710.0,770
2018/07/19 22:30,96,95,13,1.15,2.70,124,0.83,0.6,10,7,7,3015,2761,934,3,109,49.5,29.7,0,1.6,3474.72,2760.0,764
2018/07/19 22:32,97,95,16,1.22,2.90,124,0.83,0.0,11,7,7,3010,2749,937,3,107,49.4,29.6,0,1.6,3474.72,2810.0,737
2018/07/19 22:34,97,95,16,1.24,2.90,118,0.83,0.0,11,7,7,3008,2743,936,3,106,49.3,29.5,0,1.6,3474.72,2820.0,698
2018/07/19 22:36,97,95,11,1.24,2.90,118,0.83,0.8,11,6,7,3003,2740,936,3,105,49.5,29.6,0,1.6,3474.72,2760.0,786
2018/07/19 22:38,96,95,7,1.24,2.90,110,0.83,0.7,10,6,6,2998,2734,932,3,105,49.3,29.5,0,1.6,3474.72,2770.0,831
2018/07/19 22:40,95,95,7,1.17,3.10,104,0.87,0.3,9,6,6,3000,2728,935,3,105,49.0,29.2,0,1.6,3474.72,2850.0,749
2018/07/19 22:42,97,95,4,1.35,3.90,106,0.87,0.1,8,5,6,2993,2718,934,3,103,48.9,29.1,0,1.6,3505.2,2870.0,759
2018/07/19 22:44,98,95,4,1.48,4.20,106,0.87,0.0,8,5,6,3001,2714,933,2,102,48.8,29.0,0,1.6,3505.2,2950.0,562
2018/07/19 22:46,98,95,4,1.48,4.20,106,0.87,1.2,8,5,6,2986,2708,933,3,101,48.6,28.9,0,1.6,3505.2,2900.0,737
2018/07/19 22:48,98,95,4,1.48,4.20,109,0.87,0.9,8,5,6,2987,2708,933,2,101,48.7,29.0,0,1.6,3505.2,2920.0,731
2018/07/19 22:50,97,95,3,1.33,3.70,109,0.87,0.0,7,5,5,2975,2698,928,2,100,48.3,28.7,0,1.6,3505.2,2920.0,705
2018/07/19 22:52,93,95,4,1.09,3.30,109,0.87,0.0,7,5,5,3033,2904,937,3,134,49.6,30.9,0,1.7,3505.2,2980.0,589
2018/07/19 22:54,91,95,4,0.98,2.90,109,0.87,1.7,7,5,5,3052,2902,941,3,130,49.5,31.0,0,1.7,3505.2,2890.0,728
2018/07/19 22:56,89,95,5,1.04,3.10,97,0.87,0.0,9,5,5,3023,2902,935,2,132,49.7,30.7,0,1.7,3505.2,2890.0,565
2018/07/19 22:58,92,95,8,1.13,3.10,97,0.87,0.0,9,6,6,3022,2898,935,2,132,49.7,30.7,0,1.7,3505.2,2870.0,533
2018/07/19 23:00,94,95,8,1.14,3.10,107,0.87,2.1,9,6,6,3044,2892,941,3,126,49.5,31.0,0,1.7,3505.2,2900.0,713
2018/07/19 23:02,96,95,8,1.30,3.00,107,0.87,0.0,9,6,6,3048,2885,941,3,123,49.5,31.0,0,1.7,3505.2,2910.0,744
2018/07/19 23:04,97,95,5,1.50,3.50,107,0.87,0.0,7,5,6,3051,2885,941,4,122,49.4,31.0,0,1.7,3505.2,2920.0,732
2018/07/19 23:06,98,95,5,1.50,3.70,107,0.87,0.2,7,5,6,3062,2886,941,4,121,49.4,31.1,0,1.7,3505.2,2950.0,790
2018/07/19 23:08,97,95,5,1.50,3.70,107,0.87,0.3,8,5,6,3050,2867,937,4,121,49.6,30.8,0,1.7,3505.2,2960.0,691
2018/07/19 23:10,98,95,5,1.77,3.70,107,0.87,0.0,8,5,6,3054,2860,938,4,120,49.6,30.7,0,1.7,3505.2,2960.0,778
2018/07/19 23:12,98,95,6,1.77,3.90,120,0.87,2.7,8,6,6,3054,2851,938,4,119,49.5,30.6,0,1.7,3505.2,2920.0,815
2018/07/19 23:14,98,95,9,1.77,3.90,120,0.87,0.0,10,6,6,3061,2852,941,4,118,49.5,30.6,0,1.7,3505.2,2950.0,871
2018/07/19 23:16,98,95,9,1.73,3.90,134,0.87,2.0,10,6,6,3060,2848,941,4,117,49.4,30.4,0,1.7,3505.2,2900.0,963
2018/07/19 23:18,98,95,11,1.52,3.70,134,0.87,0.0,11,6,6,3053,2826,939,4,116,49.4,29.9,0,1.7,3505.2,2790.0,893
2018/07/19 23:20,98,95,11,1.52,3.70,134,0.87,0.3,11,6,6,3057,2830,941,5,115,49.3,29.8,0,1.7,3505.2,2790.0,919
2018/07/19 23:22,97,95,11,1.51,3.50,134,0.87,0.0,11,6,6,3058,2828,942,5,115,49.2,29.6,0,1.8,3505.2,2760.0,947
2018/07/19 23:24,97,95,11,1.51,3.50,119,0.87,0.5,11,6,6,3054,2821,943,5,114,49.2,29.4,0,1.8,3505.2,2700.0,973
2018/07/19 23:26,95,95,16,1.37,3.40,119,0.87,0.0,14,6,6,3054,2816,943,5,114,49.1,29.2,0,1.8,3505.2,2660.0,926
2018/07/19 23:28,94,95,17,1.30,3.30,119,0.87,1.9,14,6,7,3043,2817,944,5,113,48.8,28.8,0,1.8,3505.2,2610.0,985
2018/07/19 23:30,97,95,17,1.59,3.30,123,0.87,0.4,14,6,7,3043,2821,945,5,112,48.7,28.8,0,1.8,3505.2,2620.0,985
2018/07/19 23:32,97,95,12,1.59,3.50,125,0.83,0.1,10,7,7,3019,2835,946,5,109,48.2,28.4,0,1.8,3505.2,2600.0,896
2018/07/19 23:34,97,95,12,1.59,3.50,125,0.86,0.0,10,7,7,2999,2840,947,5,105,47.7,28.0,0,1.8,3505.2,2590.0,884
2018/07/19 23:36,96,95,14,1.47,3.50,125,0.86,0.4,11,7,7,3006,2847,947,5,105,47.7,28.1,0,1.8,3505.2,2600.0,854
2018/07/19 23:38,92,95,14,1.23,3.50,125,0.86,0.2,11,7,7,2976,2856,947,6,100,47.5,27.6,0,1.8,3505.2,2600.0,817
2018/07/19 23:40,91,95,9,1.19,3.40,125,0.86,0.0,11,6,7,2948,2848,948,6,98,47.6,27.3,0,1.8,3505.2,2580.0,849
2018/07/19 23:42,94,95,9,1.34,3.20,125,0.86,0.0,11,6,7,2937,2845,948,6,97,47.6,27.2,0,1.8,3505.2,2570.0,826
2018/07/19 23:44,94,95,4,1.34,3.20,125,0.86,1.3,9,5,7,2895,2817,949,5,96,47.7,26.7,0,1.8,3535.68,2530.0,820
2018/07/19 23:46,96,95,4,1.38,3.20,125,0.86,0.0,9,5,7,2867,2800,951,5,95,47.9,26.4,0,1.8,3535.68,2520.0,886
2018/07/19 23:48,98,95,5,1.65,3.40,125,0.86,0.0,11,5,6,2860,2795,951,4,95,47.9,26.3,0,1.8,3535.68,2510.0,838
2018/07/19 23:50,98,95,12,1.65,3.40,125,0.86,0.0,14,6,7,2854,2789,952,4,95,47.9,26.0,0,1.8,3535.68,2520.0,842
2018/07/19 23:52,98,95,35,1.65,3.40,119,0.86,2.5,14,8,10,2855,2781,955,4,96,48.0,25.7,0,1.8,3535.68,2530.0,921
2018/07/19 23:54,98,95,48,1.69,3.40,123,0.86,0.4,14,8,10,3186,3147,963,5,146,48.1,27.5,0,1.7,3535.68,2530.0,962
2018/07/19 23:56,98,95,38,1.69,3.40,127,0.86,0.3,11,8,10,3186,3147,963,5,146,48.1,27.5,0,1.7,3535.68,2530.0,962
2018/07/19 23:58,98,95,12,1.69,3.40,127,0.86,0.0,9,7,7,3179,3138,964,5,145,48.1,27.5,0,1.7,3535.68,2540.0,955
2018/07/20 00:00,98,95,11,1.69,3.60,127,0.86,0.0,8,7,7,3152,3100,969,5,145,48.1,27.3,0,1.7,3535.68,2540.0,952
2018/07/20 00:02,98,95,12,1.65,3.60,139,0.86,2.4,9,7,7,3148,3090,973,5,144,48.1,27.2,0,1.7,3535.68,2560.0,918
2018/07/20 00:04,99,95,15,1.81,3.70,139,0.86,0.0,10,7,7,3127,3065,976,5,145,48.0,27.1,0,1.7,3535.68,2570.0,961
2018/07/20 00:06,99,95,16,1.87,3.70,144,1.19,1.5,10,7,7,3114,3053,978,5,145,48.0,27.0,0,1.7,3535.68,2580.0,915
2018/07/20 00:08,99,95,25,1.93,3.70,144,1.19,0.0,10,8,8,3083,3022,981,4,146,48.0,26.7,0,1.7,3535.68,2560.0,935
2018/07/20 00:10,99,95,46,2.13,3.70,144,1.19,0.0,12,9,9,3065,3004,984,4,146,47.9,26.5,0,1.7,3535.68,2560.0,949
2018/07/20 00:12,99,95,46,2.15,3.70,155,1.19,2.3,12,9,9,3046,2987,987,4,147,47.9,26.4,0,1.7,3535.68,2550.0,960
2018/07/20 00:14,99,95,46,2.26,3.50,155,1.19,0.0,12,9,9,3033,2971,989,4,148,47.9,26.2,0,1.7,3535.68,2540.0,1004
2018/07/20 00:16,99,95,33,2.26,3.50,155,1.19,0.1,12,8,8,3023,2957,990,4,148,47.8,26.1,0,1.7,3535.68,2560.0,971
2018/07/20 00:18,99,95,33,2.54,3.50,155,1.19,0.0,12,8,8,3002,2933,992,4,150,47.8,25.9,0,1.7,3535.68,2570.0,1020
2018/07/20 00:20,99,95,20,2.54,3.50,148,1.19,0.2,10,7,8,2975,2905,993,4,153,47.7,25.6,0,1.7,3535.68,2600.0,1053
2018/07/20 00:22,99,95,12,2.54,3.50,148,1.19,0.3,9,7,7,2975,2905,993,4,153,47.7,25.6,0,1.7,3535.68,2600.0,1053
2018/07/20 00:24,99,95,9,2.63,4.10,138,1.19,0.0,9,6,6,2963,2894,994,4,154,47.7,25.4,0,1.7,3535.68,2620.0,1059
2018/07/20 00:26,99,95,11,3.08,4.10,138,1.19,1.0,10,6,6,2957,2887,995,4,154,47.6,25.4,0,1.7,3535.68,2630.0,1069
2018/07/20 00:28,99,95,25,3.08,4.10,138,1.19,0.0,13,7,7,2936,2869,994,4,156,47.6,25.1,0,1.7,3535.68,2630.0,976
2018/07/20 00:30,99,95,23,3.08,4.00,133,1.19,1.5,13,7,7,2915,2848,992,3,158,47.6,24.9,0,1.7,3535.68,2640.0,984
2018/07/20 00:32,99,95,23,2.66,3.80,133,1.19,0.0,13,7,7,2907,2840,991,3,159,47.6,24.8,0,1.7,3535.68,2640.0,983
2018/07/20 00:34,99,95,7,2.44,3.90,133,1.19,0.0,8,6,6,2895,2824,990,3,160,47.5,24.6,0,1.7,3535.68,2670.0,965
2018/07/20 00:36,99,95,6,2.43,3.90,133,1.19,0.0,8,5,6,2884,2809,986,3,161,47.5,24.4,0,1.6,3535.68,2670.0,892
2018/07/20 00:38,99,95,7,2.11,3.90,116,1.09,0.1,8,6,6,2869,2791,980,3,161,47.5,24.1,0,1.6,3535.68,2660.0,856
2018/07/20 00:40,99,95,6,2.11,3.80,106,0.96,0.0,8,6,6,2859,2776,977,3,161,47.4,24.0,0,1.6,3535.68,2650.0,835
2018/07/20 00:42,99,95,7,2.11,3.80,103,0.96,2.0,9,6,6,2842,2753,974,3,161,47.3,23.7,0,1.6,3535.68,2640.0,795
2018/07/20 00:44,99,95,7,1.72,3.70,107,0.96,0.4,9,6,6,2824,2735,971,2,161,47.2,23.4,0,1.6,3535.68,2630.0,765
2018/07/20 00:46,99,95,6,1.71,3.70,107,0.96,0.0,9,5,6,2801,2711,967,2,161,47.1,23.1,0,1.6,3535.68,2600.0,767
2018/07/20 00:48,99,95,5,1.81,3.70,107,0.96,0.0,9,5,6,2785,2698,964,2,161,47.0,23.0,0,1.6,3535.68,2570.0,779
2018/07/20 00:50,99,95,4,1.87,3.60,107,0.96,0.1,8,5,6,2760,2672,960,2,160,46.9,22.7,0,1.6,3535.68,2550.0,772
2018/07/20 00:52,99,95,9,1.87,3.60,101,0.90,0.1,9,7,7,2735,2646,954,2,159,46.8,22.4,0,1.5,3535.68,2520.0,756
2018/07/20 00:54,99,95,11,2.33,3.80,94,0.90,0.0,10,7,7,2712,2618,949,2,157,46.5,22.2,0,1.5,3535.68,2500.0,735
2018/07/20 00:56,99,95,11,2.33,3.80,105,0.90,4.5,10,7,7,2689,2594,941,2,156,46.4,22.0,0,1.5,3535.68,2470.0,779
2018/07/20 00:58,99,95,11,2.33,3.80,111,0.90,0.5,10,7,7,2672,2574,935,2,154,46.2,21.8,0,1.5,3535.68,2430.0,830
2018/07/20 01:00,99,95,11,1.97,3.70,111,0.90,0.0,10,7,7,2656,2557,930,2,153,46.0,21.7,0,1.5,3535.68,2400.0,821
2018/07/20 01:02,99,95,7,1.94,3.40,122,0.77,1.2,10,6,7,2629,2530,922,2,151,45.8,21.5,0,1.4,3535.68,2360.0,812
2018/07/20 01:04,99,95,5,1.69,3.50,122,0.67,0.0,9,6,7,2595,2500,912,2,148,45.5,21.3,0,1.4,3535.68,2320.0,813
2018/07/20 01:06,99,95,5,1.90,3.70,122,0.67,0.0,9,6,7,2587,2492,910,2,147,45.4,21.2,0,1.4,3535.68,2320.0,788
2018/07/20 01:08,99,95,5,1.98,3.70,122,0.73,0.5,9,6,7,2547,2456,900,2,143,45.1,21.0,0,1.4,3535.68,2260.0,750
2018/07/20 01:10,99,95,5,2.75,3.70,103,0.73,0.0,9,6,7,2525,2434,894,2,141,44.8,20.8,0,1.4,3535.68,2200.0,760
2018/07/20 01:12,99,95,5,3.14,3.70,92,0.73,0.1,9,6,7,2508,2417,889,2,139,44.7,20.7,0,1.4,3535.68,2170.0,824
2018/07/20 01:14,99,95,4,3.14,3.70,96,0.73,1.0,9,6,6,2498,2407,887,2,138,44.6,20.6,0,1.4,3535.68,2140.0,915
2018/07/20 01:16,99,92,2,3.86,4.10,96,0.73,0.0,9,5,5,2479,2386,882,2,135,44.4,20.5,0,1.4,3535.68,2080.0,849
2018/07/20 01:18,99,95,5,3.86,4.10,96,0.73,0.0,10,7,5,2466,2370,878,2,133,44.2,20.4,0,1.4,3535.68,2050.0,819
2018/07/20 01:20,99,95,6,3.86,4.10,96,0.73,0.0,11,7,5,2459,2361,876,2,132,44.1,20.3,0,1.4,3535.68,2030.0,810
2018/07/20 01:22,99,95,16,2.81,3.80,93,0.73,0.0,12,8,7,2447,2348,873,2,130,44.0,20.3,0,1.4,3535.68,2000.0,785
2018/07/20 01:24,99,95,15,3.02,3.80,82,0.73,0.0,12,8,7,2439,2336,870,2,129,43.9,20.2,0,1.4,3535.68,1980.0,780
2018/07/20 01:26,99,95,15,3.33,3.70,77,0.73,0.0,12,8,7,2430,2323,867,2,127,43.8,20.1,0,1.4,3535.68,1940.0,740
2018/07/20 01:28,99,95,25,3.33,3.70,74,0.78,0.0,12,9,8,2336,2181,832,24,183,43.8,22.8,0,1.4,3535.68,1850.0,600
2018/07/20 01:30,99,95,30,3.33,3.70,74,0.78,0.0,12,9,9,2335,2176,830,26,181,43.6,22.8,0,1.3,3535.68,1800.0,555
2018/07/20 01:32,99,95,30,3.04,3.70,68,0.78,3.2,12,9,9,2334,2171,829,26,178,43.5,22.8,0,1.3,3535.68,1740.0,470
2018/07/20 01:34,99,95,30,2.72,3.70,68,0.78,0.0,12,9,9,2334,2169,828,25,176,43.4,22.6,0,1.3,3535.68,1700.0,452
2018/07/20 01:36,99,95,27,3.24,3.80,68,0.79,0.6,11,9,9,2336,2168,828,25,175,43.4,22.6,0,1.3,3535.68,1680.0,438
2018/07/20 01:38,99,95,30,3.24,3.80,68,0.79,0.0,12,9,9,2348,2172,829,25,175,43.3,22.6,0,1.3,3535.68,1680.0,509
2018/07/20 01:40,98,95,31,3.29,3.80,62,0.79,0.0,12,9,9,2346,2170,828,22,171,43.3,22.3,0,1.3,3535.68,1630.0,459
2018/07/20 01:42,98,95,36,3.69,3.80,62,0.79,0.0,12,10,9,2349,2169,828,21,170,43.3,22.3,0,1.3,3535.68,1610.0,449
2018/07/20 01:44,98,95,38,3.69,3.80,62,0.84,0.0,12,10,9,2355,2175,828,19,167,43.4,22.0,0,1.3,3535.68,1570.0,390
2018/07/20 01:46,98,95,38,3.69,3.80,58,0.84,1.4,12,10,9,2356,2171,828,20,168,43.2,22.1,0,1.3,3535.68,1570.0,491
2018/07/20 01:48,99,95,48,3.17,3.80,73,0.85,5.2,13,11,9,2363,2173,828,19,166,43.2,22.0,0,1.3,3535.68,1550.0,526
2018/07/20 01:50,99,95,48,3.09,3.80,73,0.85,0.0,13,11,9,2367,2176,828,18,165,43.2,21.9,0,1.3,3535.68,1520.0,556
2018/07/20 01:52,99,95,39,2.93,3.80,73,0.85,0.0,13,11,7,2368,2177,828,17,164,43.1,21.9,0,1.3,3535.68,1520.0,571
2018/07/20 01:54,99,95,58,2.93,3.80,73,0.87,0.1,14,12,9,2378,2184,829,15,161,43.2,21.7,0,1.3,3535.68,1470.0,502
2018/07/20 01:56,98,95,59,2.72,3.70,65,0.87,0.0,14,12,9,2331,2079,809,33,186,41.5,25.0,0,1.5,3535.68,1440.0,493
2018/07/20 01:58,98,95,56,2.41,3.70,51,0.87,0.0,14,12,9,2331,2083,809,33,184,41.4,24.9,0,1.5,3535.68,1410.0,473
2018/07/20 02:00,97,95,51,2.00,3.70,51,0.87,0.2,14,11,9,2333,2092,811,30,182,41.3,24.6,0,1.5,3566.16,1380.0,446
2018/07/20 02:02,98,95,51,2.56,3.70,56,0.87,1.2,14,11,8,2333,2095,812,31,179,41.2,24.6,0,1.5,3566.16,1350.0,429
2018/07/20 02:04,98,95,56,2.56,3.70,59,0.96,1.1,14,12,8,2333,2099,813,29,179,41.2,24.5,0,1.5,3566.16,1350.0,457
2018/07/20 02:06,98,95,57,2.56,3.70,59,1.04,0.0,14,12,8,2334,2108,817,28,176,41.1,24.3,0,1.5,3566.16,1320.0,407
2018/07/20 02:08,98,95,47,2.56,3.80,59,0.99,0.0,14,12,8,2334,2111,819,29,174,41.1,24.2,0,1.5,3566.16,1310.0,443
2018/07/20 02:10,98,95,47,2.56,3.70,59,0.96,0.0,14,12,8,2334,2119,822,30,171,41.1,24.1,0,1.5,3566.16,1290.0,428
2018/07/20 02:12,98,95,46,2.56,3.70,59,0.96,0.0,14,12,8,2335,2131,829,31,168,41.2,23.9,0,1.5,3566.16,1250.0,460
2018/07/20 02:14,98,95,45,2.56,3.70,59,0.96,0.0,14,12,8,2336,2137,833,33,166,41.2,23.9,0,1.5,3566.16,1230.0,443
2018/07/20 02:16,98,95,46,2.56,3.70,59,0.96,0.0,14,12,8,2335,2149,840,32,163,41.2,23.7,0,1.5,3566.16,1210.0,409
2018/07/20 02:18,98,95,46,2.56,3.70,64,1.03,0.2,14,12,8,2335,2155,844,33,161,41.2,23.7,0,1.5,3566.16,1190.0,412
2018/07/20 02:20,98,95,51,2.56,3.70,61,0.98,0.1,16,12,8,2334,2166,853,33,158,41.2,23.5,0,1.5,3566.16,1170.0,394
2018/07/20 02:22,99,95,51,2.56,3.80,73,1.28,0.5,16,12,8,2337,2182,864,38,156,41.2,23.4,0,1.5,3566.16,1110.0,465
2018/07/20 02:24,98,95,44,2.56,3.80,61,1.03,0.1,15,12,8,2337,2182,864,38,156,41.2,23.4,0,1.5,3566.16,1110.0,465
2018/07/20 02:26,98,95,37,2.56,3.70,59,0.98,0.0,16,12,8,2343,2183,871,47,151,41.2,23.5,0,1.4,3566.16,1060.0,333
2018/07/20 02:28,98,95,37,2.56,3.70,59,0.96,0.0,16,12,8,2345,2192,877,47,150,41.2,23.4,0,1.4,3596.64,1040.0,348
2018/07/20 02:30,98,95,35,2.56,3.70,59,0.96,0.0,17,12,8,2348,2199,879,49,148,41.1,23.3,0,1.4,3596.64,1020.0,356
2018/07/20 02:32,98,95,37,2.56,3.70,59,0.96,0.0,17,12,8,2351,2206,883,49,147,41.0,23.2,0,1.4,3596.64,1000.0,343